Regional Weather Roundup
Issued by NWS

Home | Current Version | Previous Version | Graphics & Text | Print | Product List | Glossary On
Versions: 1 2 3 4 5 6 7 8 9 10 11 12 13 14 15 16 17 18 19 20 21 22 23 24 25 26 27 28 29 30 31 32 33 34 35 36 37 38 39 40 41 42 43 44 45 46 47 48 49 50
000
ASUS43 KDTX 280301
RWRMI
MICHIGAN HOURLY REGIONAL WEATHER ROUNDUP
NATIONAL WEATHER SERVICE DETROIT/PONTIAC MI
1100 PM EDT TUE SEP 27 2016

NOTE: "FAIR" INDICATES FEW OR NO CLOUDS BELOW 12,000 FEET WITH NO
SIGNIFICANT WEATHER AND/OR OBSTRUCTION TO VISIBILITY.

MIZ047>049-052>055-059>063-066>070-074>076-081>083-280400-
SOUTHEAST LOWER MICHIGAN

CITY           SKY/WX    TMP DP  RH WIND       PRES   REMARKS
ADRIAN         PTCLDY    51  45  79 CALM      29.82R
ALMA           CLOUDY    55  50  82 SW10      29.80R
ANN ARBOR      PTCLDY    54  46  74 CALM      29.81R
BAD AXE        CLOUDY    52  47  81 S5        29.81R
CARO           CLOUDY    52  49  90 CALM      29.80R
DETROIT CITY   CLOUDY    60  44  55 NE3       29.82R
DETROIT        CLOUDY    58  45  62 CALM      29.82R
FLINT          LGT RAIN  55  48  77 SW3       29.82R
GROSSE ILE     CLOUDY    58  44  60 CALM      29.80R
HILLSDALE      PTCLDY    48  45  87 CALM      29.81R
HOWELL         CLOUDY    55  49  78 CALM      29.81S

CITY           SKY/WX    TMP DP  RH WIND       PRES   REMARKS
JACKSON        PTCLDY    54  48  80 CALM      29.81R
LAMBERTVILLE   CLEAR     49  45  84 CALM      29.82R
LANSING        LGT RAIN  55  47  74 W5        29.81S
LAPEER         CLOUDY    53  51  91 E5        29.82R
MASON          CLOUDY    56  47  73 CALM      29.81S
MONROE         PTCLDY    50  46  85 S8        29.81R
MT. CLEMENS    CLOUDY    57  47  69 CALM      29.80R
PONTIAC        CLOUDY    57  47  69 CALM      29.81R
PORT HURON     CLOUDY    52  50  93 CALM      29.82R
TRI CITIES     CLOUDY    55  48  77 S5        29.80R
MIDLAND        CLOUDY    54  48  79 CALM      29.78S
TROY           CLOUDY    61  43  51 CALM      29.83R
SAGINAW HB     CLOUDY    54  46  76 S5        29.80R
$$
MIZ043>046-050>051-056>058-064>065-071>073-077>080-280400-
SOUTHWEST LOWER MICHIGAN

CITY           SKY/WX    TMP DP  RH WIND       PRES   REMARKS
BATTLE CREEK   MOCLDY    54  48  80 N5        29.82R
BENTON HARBOR  CLOUDY    54  48  80 E3        29.79R
BIG RAPIDS     CLOUDY    52  51  97 SW3       29.76S
COLDWATER      MOCLDY    51  45  82 CALM      29.81R
FREMONT        RAIN      51  51  99 CALM      29.77S
HOLLAND        LGT RAIN  55  51  86 N3        29.78F
GRAND RAPIDS   LGT RAIN  53  48  83 W5        29.79F
IONIA          RAIN      53  47  81 SW6       29.79S
KALAMAZOO      PTCLDY    56  47  71 CALM      29.81S
LUDINGTON      RAIN      52  50  92 CALM      29.74S
MARSHALL       MOCLDY    53  47  82 CALM      29.81R
MOUNT PLEASANT CLOUDY    54  49  84 SW3       29.78R
MUSKEGON       CLOUDY    57  48  72 W6        29.77S
SOUTH HAVEN    CLOUDY    56  53  89 CALM      29.79S
$$
MIZ016>042-280400-
NORTHERN LOWER MICHIGAN

CITY           SKY/WX    TMP DP  RH WIND       PRES   REMARKS
ALPENA         CLOUDY    53  49  86 S3        29.78R
BEAVER ISLAND  CLOUDY    49  49 100 CALM      29.71R
BELLAIRE       LGT RAIN  51  49  93 S3        29.73S
CADILLAC       DRIZZLE   48  47  96 S3        29.74S
CHARLEVOIX     CLOUDY    51  51  99 SE3       29.74S
FRANKFORT      HVY RAIN  53  50  89 CALM      29.71S
GAYLORD        LGT RAIN  50  46  86 S6        29.74R
GRAYLING       DRIZZLE   49  48  98 CALM      29.76R
HARBOR SPRINGS CLOUDY    50  49  96 CALM      29.73R
HOUGHTON LAKE  LGT RAIN  51  48  89 S6        29.77R
MANISTEE       LGT RAIN  51  50  96 S5        29.73R
OSCODA         CLOUDY    52  49  90 SW5       29.77S
PELLSTON       LGT RAIN  51  49  92 SE3       29.74R
ROGERS CITY    MOCLDY    51  49  92 S3        29.77R
TRAVERSE CITY  LGT RAIN  52  50  93 CALM      29.71S
$$
MIZ007>008-015-280400-
EASTERN UPPER MICHIGAN

CITY           SKY/WX    TMP DP  RH WIND       PRES   REMARKS
KINROSS        LGT RAIN  51  50  96 SE6       29.74R
MACKINAC ISLAN CLOUDY    52  52 100 S8        29.72S
NEWBERRY       CLOUDY    49  48  97 SE3       29.71R
S. S. MARIE    CLOUDY    52  50  93 CALM      29.74R
MUNISING         N/A     52  51  97 S6        29.67R
$$
MIZ004>006-011>014-085-280400-
CENTRAL UPPER MICHIGAN

CITY           SKY/WX    TMP DP  RH WIND       PRES   REMARKS
MANISTIQUE     CLOUDY    51  48  92 CALM      29.69R
ESCANABA       CLOUDY    50  48  93 W5        29.70R
MENOMINEE      CLOUDY    51  49  92 CALM      29.72R
SAWYER-GWINN   PTCLDY    47  45  95 CALM      29.68R
$$
MIZ001>003-009>011-084-280400-
WESTERN UPPER MICHIGAN

CITY           SKY/WX    TMP DP  RH WIND       PRES   REMARKS
IRON MOUNTAIN  CLOUDY    49  45  86 W3        29.69S
HOUGHTON       PTCLDY    53  50  89 N8        29.69R
COPPER HARBOR    N/A     58  54  86 VRB7      29.69R
IRONWOOD       LGT RAIN  50  49  96 NW13      29.77R
$$

ABBREVIATIONS USED IN REMARKS
   TC - TEMPERATURE IN CELSIUS
  WCI - WIND CHILL INDEX
   HX - HEAT INDEX
  VSB - VISIBILITY




USA.gov is the U.S. government's official web portal to all federal, state and local government web resources and services.